Simultaneous Nadir Overpasses (SNOs) Predictions

Prediction of SNOs between AQUA and GOES-15 Satellite Orbit:

Table of predicted SNOs for the next 14.0 days since TLE Epoch: 7/19/2019
Index Date Time (AQUA) AQUA Lat,Lon GOES-15 Lat,Lon Distance(km) Time Diff (sec)
1 07/21/2019 09:54:52 -0.82,-124.95 -0.20,-128.00 345.53 80
2 07/21/2019 22:16:17 -0.21,-130.16 0.22,-127.98 246.85 80
3 07/23/2019 22:04:05 0.38,-127.20 0.22,-128.04 95.54 80
4 07/24/2019 10:25:22 0.66,-132.37 -0.24,-128.09 486.30 80
5 07/25/2019 21:51:54 1.03,-124.24 0.22,-128.09 437.31 80
6 07/26/2019 10:13:11 0.01,-129.42 -0.24,-128.14 144.81 80
7 07/28/2019 10:00:59 -0.58,-126.45 -0.24,-128.18 195.88 80
8 07/28/2019 22:22:23 -0.50,-131.65 0.26,-128.15 397.54 80
9 07/30/2019 22:10:12 0.16,-128.70 0.26,-128.19 57.77 80
10 08/01/2019 21:58:01 0.82,-125.75 0.26,-128.22 281.47 80
11 08/02/2019 10:19:17 0.29,-130.90 -0.28,-128.26 300.76 80




NCC Satellite Simultaneous Nadir Overpasses (SNOs) Prediction Service
